< < Back
Terminal Aerodrome Forecast


Current Version              Previous Versions:   1  2  3  4  5  6  7  8  9  

Terminal Aerodrome Forecast

656
FTUS42 KFFC 121742
TAFCSG
TAF
KCSG 121742Z 1218/1318 29005KT P6SM FEW150
     FM130100 32012KT P6SM SKC
     FM131700 35011KT P6SM SKC=

Latest METAR

328
SAUS70 KWBC 131100
MTRCSG
METAR KCSG 131051Z AUTO 35006KT 10SM CLR 03/M07 A3029 RMK AO2 SLP256
T00331067


USA.gov is the U.S. government's official web portal to all federal, state and local government web resources and services.